Starlink 11161

operational
NORAD ID: 60124 Int'l Des: 2024-118 Owner: SPXS Country: US Constellation: starlink
LEOCIRCULAR

关于 Starlink 11161

正在加载描述...

实时位置

正在加载3D地球...

即将过境

高度历史

Altitude vs Time

uPlot chart will show altitude changes over time

两行轨道根数

1 60124U 24118M 25259.26999411 -.00002057 00000-0 -12128-4 0 9997
2 60124 53.1588 1.4592 0001176 76.9149 283.2000 15.69705753 70591
Epoch: Sep 16, 2025 • Age: 13 hours

当前状态

高度 360.9 km
速度 7.69 km/s
星下点 -0.40°S, 108.95°W
发射日期 Jun 24, 2024
运行时间 1.2 years
类型 internet

技术详情

分类 Payload
质量 960.00 kg
干质量 910.00 kg
总质量 960.00 kg
长度 0.30 m
直径 4.10 m
跨度 29.00 m
形状 Box + pan
制造商 SPXS
平台类型 Starlink V2MD
阶段状态 In Orbit
所有者/国家 SPXS/US

大型星座

Loading constellations...